Regional Weather Roundup
Issued by NWS Upton, NY

Current Version | Previous Version | Text Only | Print | Product List | Glossary On
Versions: 1 2 3 4 5 6 7 8 9 10 11 12 13 14 15 16 17 18 19 20 21 22 23 24 25 26 27 28 29 30 31 32 33 34 35 36 37 38 39 40 41 42 43 44 45 46 47 48 49 50
000
ASUS41 KOKX 271118
RWROKX

REGIONAL WEATHER ROUNDUP
NATIONAL WEATHER SERVICE NEW YORK NY
700 AM EDT MON JUL 27 2015

NOTE: "FAIR" INDICATES FEW OR NO CLOUDS BELOW 12,000 FEET WITH NO
SIGNIFICANT WEATHER AND/OR OBSTRUCTIONS TO VISIBILITY.

NYZ071-072-176-178-NJZ106-104-271200-
NEW YORK CITY METRO AREA


CITY           SKY/WX    TMP DP  RH WIND       PRES   REMARKS
CENTRAL PARK   CLOUDY    72  68  87 VRB5      30.04R FOG
LAGUARDIA APRT CLOUDY    76  65  68 SW7       30.01R
KENNEDY INTL   CLOUDY    75  65  70 SW8       30.01S
NEWARK/LIBERTY CLOUDY    73  65  75 CALM      30.01R
BRNX BOT. GARD   N/A     72  68  88 N3        30.03R
TETERBORO      CLOUDY    73  66  78 S7        29.99R
$$

NYZ177-179-078>081-271200-
LONG ISLAND NEW YORK

CITY           SKY/WX    TMP DP  RH WIND       PRES   REMARKS
FARMINGDALE    CLOUDY    74  68  81 SW6       30.02R
ISLIP          CLOUDY    75  68  78 SW7       29.99R
SHIRLEY        CLOUDY    74  71  91 S5        30.02R
WESTHAMPTON    CLOUDY    74  72  93 S3        30.03R
MONTAUK POINT    N/A     75  71  87 VRB3      30.03R
$$

NYZ052-065-067-271200-
HUDSON VALLEY

CITY           SKY/WX    TMP DP  RH WIND       PRES   REMARKS
WHITE PLAINS   CLOUDY    70  67  90 CALM      30.01R
NEWBURGH       PTSUNNY   68  68 100 CALM      30.02R
MONTGOMERY     CLOUDY    66  65  96 CALM      30.01R FOG
POUGHKEEPSIE   CLOUDY    69  66  90 CALM      30.00R FOG
ALBANY         PTSUNNY   71  64  78 S5        30.00R
$$

NJZ001-105-106-008-010-013-015-019>022-104-271200-
NEW JERSEY

CITY           SKY/WX    TMP DP  RH WIND       PRES   REMARKS
NEWARK/LIBERTY CLOUDY    73  65  75 CALM      30.01R
TETERBORO      CLOUDY    73  66  78 S7        29.99R
CALDWELL       CLOUDY    71  67  87 CALM      30.01R
MORRISTOWN     PTSUNNY   73  72  94 CALM      30.01S
SOMERVILLE     CLOUDY    70  67  90 CALM      29.99R FOG
SUSSEX         CLOUDY    67  65  93 CALM      30.01R
ANDOVER          N/A     68  67  96 CALM      30.02R
TRENTON        CLOUDY    69  66  90 CALM      29.99R
MILLVILLE      CLOUDY    72  71  97 E3        30.00F FOG
ATLANTIC CITY  LGT RAIN  70  69  97 E5        30.01F FOG
WRIGHTSTOWN    CLOUDY    69  68  99 S2        29.97R
TOMS RIVER     CLOUDY    68  66  94 CALM      30.00F
BELMAR         CLOUDY    70  63  78 SW3       30.01R
$$

PAZ047>061-062-071-271200-
EASTERN PENNSYLVANIA

CITY           SKY/WX    TMP DP  RH WIND       PRES   REMARKS
PHILADELPHIA   CLOUDY    72  69  90 S7        29.99S
ALLENTOWN      CLOUDY    72  70  94 E3        30.01R FOG
SCRANTON       PTSUNNY   67  63  87 MISG      30.01R
$$

CTZ002-004>006-009-010-012-RIZ004-006-007-MAZ004-011-015-271200-
SOUTHERN NEW ENGLAND
 IN CT

CITY           SKY/WX    TMP DP  RH WIND       PRES   REMARKS
BRADLEY INTL   CLOUDY    70  64  81 CALM      29.99R
HARTFORD       CLOUDY    71  65  81 S3        29.99R
DANBURY        CLOUDY    69  64  84 CALM      30.03R
WTRBRY/OXFORD  SUNNY     70  61  73 CALM      30.03S
BRIDGEPORT     LGT RAIN  72  69  90 S9        29.99S
MERIDEN        CLOUDY    70  63  78 CALM      30.00R
NEW HAVEN      CLOUDY    70  68  93 CALM      30.01R
CHESTER        LGT RAIN  68  66  94 CALM      30.03R
GROTON         CLOUDY    72  69  90 CALM      30.01R
WILLIMANTIC    CLOUDY    68  66  93 CALM      30.01R

 IN RI

CITY           SKY/WX    TMP DP  RH WIND       PRES   REMARKS
PROVIDENCE     LGT RAIN  69  67  93 SW5       30.03R FOG
BLOCK ISLAND   CLOUDY    72  72 100 S6        30.04R
WESTERLY       CLOUDY    72  70  93 S5        30.02S

 IN MA

CITY           SKY/WX    TMP DP  RH WIND       PRES   REMARKS
BOSTON         CLOUDY    70  66  87 S5        30.01S
WORCESTER      PTSUNNY   66  63  90 SW6       30.04R
WESTFIELD      CLOUDY    65  64  97 CALM      30.01R
PROVINCETOWN   PTSUNNY   70  63  78 SW9       30.02R
NANTUCKET      CLOUDY    70  67  90 S10       30.04S
$$

ANZ330-335-338-340-345-350-353-355-271200-
COASTAL MARINE OBSERVATIONS


STATION/POSITION TIME  SKY/WX   TEMP    WIND        PRES    VSBY  WAVE
                                AIR SEA DIR/SP/G                  HT/PER
                 (UTC)          (F)     (DEG/KT/KT) (MB)    (MI)  (FT/S)
NY HARB ENTRANCE 1050            74 74  240/  8/ 10 1015.9          2/11
4S FIRE IS       NOT AVBL
20S FIRE ISLAND  1050            74 73  210/  6/  6 1016.1          2/11
GREAT SOUTH BAY  1000            75 78  220/ 10/ 12   N/A
23SW MTP         1050            74 73  220/  8/ 10 1016.1          3/11
HUDSON CANYON    NOT AVBL
KINGS POINT      1000            74 69  230/  2/  6 1014.7
CENTRAL LI SOUND NOT AVBL
EASTERN LI SOUND 1000            71 69  210/  6/  8   N/A
ROBBINS REEF     1000            73     200/  6/  9 1014.5
$$


>>>>>>>>>>>>>>>>>>>>>>>>>>>> KEY <<<<<<<<<<<<<<<<<<<<<<<<<<<
>                                                          <
>     SKY/WX - SKY CONDITION/PRESENT WEATHER               <
>     TMP    - TEMPERATURE IN FAHRENHEIT                   <
>     DP     - DEWPOINT IN FAHRENHEIT                      <
>     RH     - RELATIVE HUMIDITY IN PERCENT                <
>     WIND   - DIRECTION AND SPEED IN MPH                  <
>     PRES   - MEAN SEA LEVEL PRESSURE IN INCHES OF HG     <
>     WCI    - WIND CHILL INDEX                            <
>     VSB    - VISIBILITY IN MILES                         <
>     HX     - HEAT INDEX                                  <
>     TC     - TEMPERATURE IN CELSIUS                      <
>     VRB    - VARIABLE WIND DIRECTION                     <
>                                                          <
>>>>>>>>>>>>>>>>>>>>>>>>>>>> KEY <<<<<<<<<<<<<<<<<<<<<<<<<<<




USA.gov is the U.S. government's official web portal to all federal, state and local government web resources and services.